This is the latest recevied weather packets stored in our database for station/object N7CEE-2. If no packets are shown the sender has not sent any weather packets the latest 10 day(s).
| Time | Temp. | Humidity | Pressure | Rain* | Wind** | Luminosity | Snow |
|---|---|---|---|---|---|---|---|
| 1777145950 | 25.56° C | 28% | 1012.1 hPa | 0 mm | - | 1144 W/m² | - |
| 1777145646 | 25.56° C | 28% | 1012 hPa | 0 mm | - | 1076 W/m² | - |
| 1777145342 | 25° C | 28% | 1012 hPa | 0 mm | - | 1134 W/m² | - |
| 1777145037 | 25° C | 28% | 1012.4 hPa | 0 mm | - | 535 W/m² | - |
| 1777144730 | 25° C | 29% | 1012.2 hPa | 0 mm | - | 394 W/m² | - |
| 1777144425 | 25° C | 29% | 1012.4 hPa | 0 mm | - | 388 W/m² | - |
| 1777144122 | 25° C | 28% | 1012.3 hPa | 0 mm | - | 452 W/m² | - |
| 1777143818 | 25° C | 29% | 1012.3 hPa | 0 mm | - | 447 W/m² | - |
| 1777143515 | 25° C | 29% | 1012.3 hPa | 0 mm | - | 438 W/m² | - |
| 1777143210 | 25° C | 28% | 1012.5 hPa | 0 mm | - | 409 W/m² | - |
| 1777142907 | 25° C | 29% | 1012.6 hPa | 0 mm | - | 414 W/m² | - |
| 1777142603 | 25° C | 29% | 1012.6 hPa | 0 mm | - | 459 W/m² | - |
| 1777142301 | 25° C | 28% | 1012.4 hPa | 0 mm | - | 376 W/m² | - |
| 1777142000 | 25° C | 28% | 1012.5 hPa | 0 mm | - | 334 W/m² | - |
| 1777141696 | 25° C | 28% | 1012.6 hPa | 0 mm | - | 299 W/m² | - |
| 1777141395 | 25.56° C | 28% | 1012.7 hPa | 0 mm | - | 368 W/m² | - |
| 1777141091 | 25° C | 28% | 1012.6 hPa | 0 mm | - | 535 W/m² | - |
| 1777140789 | 25.56° C | 28% | 1012.7 hPa | 0 mm | - | 653 W/m² | - |
| 1777140484 | 25° C | 28% | 1012.6 hPa | 0 mm | - | 546 W/m² | - |
| 1777140183 | 25° C | 28% | 1012.7 hPa | 0 mm | - | 522 W/m² | - |
| 1777139880 | 25° C | 28% | 1012.9 hPa | 0 mm | - | 403 W/m² | - |
| 1777139577 | 24.44° C | 29% | 1012.8 hPa | 0 mm | - | 406 W/m² | - |
| 1777139276 | 25° C | 28% | 1012.7 hPa | 0 mm | - | 423 W/m² | - |
| 1777138974 | 24.44° C | 29% | 1012.6 hPa | 0 mm | - | 421 W/m² | - |
| 1777138670 | 24.44° C | 29% | 1012.6 hPa | 0 mm | - | 413 W/m² | - |
* Rain latest hour (hover to see other rain measurements)
** Current wind speed in m/s (hover to see current wind gust speed)